STARLINK-11556, 62838

Orbit data source: Space-Track

STARLINK-11556, 62838 is a payload satellite owned by SpaceX/Seattle (US) in LEO that was launched on Mon, 27 Jan 2025 UTC via an FALCON 9 launch vehicle from the Air Force Eastern Test Range (AFETR). Payload-class satellites include a variety of spacecraft equipped with specific instruments for various scientific and technological missions. These include communications satellites like Starlink; space stations such as the ISS; scientific satellites like the Hubble; Earth observation satellites from companies like Planet Labs, Umbra, and HawkEye 360; GPS; miniature CubeSats for education and research; and military/defense satellites.

Loading next visibility...
Identifier
62838, 2025-019K
Orbit
LEO
Last TLE update
20 hours ago
Origin
Manufacturer
SpaceX/Seattle
Mission
Operational Commercial Communications
Bus & Motor
STARLINK V2M, Unknown motor
Mass
730 kg wet, ~700 kg dry
Launch date (UTC)
2025-01-27 (5 months ago)
Launch vehicle
FALCON 9
Launch site
Air Force Eastern Test Range (AFETR)
Object type
Payload
Rocket body
Debris
Shape & HBR
Box + 2 Pan, 29 m
Radar Cross Section
36.964 m², Large (>1 m²)

Expand to show TLE details & history

TLE from 20 hours ago
0 STARLINK-11556
1 62838U 25019K   25191.50536918  .00115777  00000-0  89283-3 0  9990
2 62838  42.9995 325.5914 0002638 283.7747  76.2827 15.70849338 25796
Epoch: 2025-07-10T12:07Z
TLE epoch observation values (Epoch: 2025-07-10T12:07:43.897Z)
Latitude
-0°
Longitude
-145.01219°
Altitude
355.819 km
Speed
7.698 km/s
True Right ascension
21h 42m 21s
True Declination
0° 00' 00"
Sunlit
Object was in full shadow at epoch
Visualization orbit readout
Latitude
43.04069°
Longitude
-65.32898°
Altitude
360.617 km
Speed
7.698 km/s
Apparent Right ascension
05h 48m 30s
Apparent Declination
3° 57' 52"
Sunlit
Object is in daylight
Visualization observer readout
Local Sidereal Time
20:37:20
Azimuth
51.812° ENE
Elevation
-31.493°
Doppler factor
1
Orbital elements
Apogee altitude
360.227 km
Perigee altitude
356.673 km
Semi-major axis
6,736.587 km
Eccentricity
0.00026
Inclination
42.9995°
RAAN
325.5914°
Arg. of periapsis
283.7747°
True anomaly
Unknown
Mean anomaly
76.2827°
Eccentric anomaly
Unknown
Mean motion
3.92539 °/min
Orbital period
91.71 mins
BSTAR
0.00089283
Loading maneuver chart data...
Loading SW <> Apogee altitude chart data...
Loading historical data...
Loading historical data...
Loading historical data...
Loading historical data...
Loading historical data...
Loading historical data...
Loading historical data...

STARLINK-11556 Visibility forecast

Observer location: undefined°, undefined°

Span
Click to sort rows by Start time (UTC) header in descending order
Start Az.
Max El. time (UTC)
Max El. Az.
Max El.
End time (UTC)
End Az.
4 mins2025-07-11 12:47:48.874Z231.065° WSW2025-07-11 12:48:48.874Z203.159° SW38.71°2025-07-11 12:51:48.874Z76.847° E
4 mins2025-07-11 14:23:48.874Z289.538° WNW2025-07-11 14:25:48.874Z22.39° NNE33.883°2025-07-11 14:27:48.874Z67.21° ENE
|